This is the latest recevied weather packets stored in our database for station/object KD8OZS. If no packets are shown the sender has not sent any weather packets the latest 10 day(s).
| Time | Temp. | Humidity | Pressure | Rain* | Wind** | Luminosity | Snow |
|---|---|---|---|---|---|---|---|
| 1777730280 | 3.89° C | 88% | 1009.4 hPa | 0 mm | - | 40 W/m² | - |
| 1777729977 | 3.89° C | 87% | 1009.6 hPa | 0 mm | - | 29 W/m² | - |
| 1777729672 | 3.89° C | 87% | 1009.4 hPa | 0 mm | - | 27 W/m² | - |
| 1777729370 | 3.89° C | 86% | 1009.5 hPa | 0 mm | - | 33 W/m² | - |
| 1777729066 | 3.89° C | 86% | 1009.5 hPa | 0 mm | - | 57 W/m² | - |
| 1777728763 | 4.44° C | 85% | 1009.2 hPa | 0 mm | - | 76 W/m² | - |
| 1777728459 | 5° C | 85% | 1009.2 hPa | 0 mm | - | 122 W/m² | - |
| 1777728157 | 5° C | 85% | 1009.1 hPa | 0 mm | - | 264 W/m² | - |
| 1777727854 | 5° C | 85% | 1009 hPa | 0 mm | - | 269 W/m² | - |
| 1777727551 | 4.44° C | 87% | 1009.4 hPa | 0 mm | - | 503 W/m² | - |
| 1777727248 | 3.89° C | 88% | 1009.4 hPa | 0 mm | - | 104 W/m² | - |
| 1777726946 | 3.89° C | 87% | 1009.3 hPa | 0 mm | - | 65 W/m² | - |
| 1777726642 | 3.89° C | 87% | 1009.3 hPa | 0 mm | - | 95 W/m² | - |
| 1777726340 | 4.44° C | 86% | 1009.2 hPa | 0 mm | - | 184 W/m² | - |
| 1777726036 | 4.44° C | 86% | 1008.9 hPa | 0 mm | - | 254 W/m² | - |
| 1777725733 | 3.89° C | 88% | 1009.1 hPa | 0 mm | - | 619 W/m² | - |
| 1777725432 | 3.33° C | 88% | 1009 hPa | 0 mm | - | 175 W/m² | - |
| 1777725128 | 3.33° C | 88% | 1008.9 hPa | 0 mm | - | 192 W/m² | - |
| 1777724825 | 2.78° C | 87% | 1008.9 hPa | 0 mm | - | 105 W/m² | - |
| 1777724521 | 2.78° C | 87% | 1009 hPa | 0 mm | - | 121 W/m² | - |
| 1777724220 | 3.89° C | 87% | 1009.1 hPa | 0 mm | - | 117 W/m² | - |
| 1777723917 | 3.89° C | 89% | 1008.9 hPa | 0 mm | - | 139 W/m² | - |
| 1777723613 | 2.78° C | 93% | 1008.6 hPa | 0 mm | - | 107 W/m² | - |
| 1777723310 | 2.22° C | 94% | 1008.7 hPa | 0 mm | - | 101 W/m² | - |
| 1777723008 | 2.78° C | 95% | 1008.8 hPa | 0 mm | - | 95 W/m² | - |
* Rain latest hour (hover to see other rain measurements)
** Current wind speed in m/s (hover to see current wind gust speed)